Location: Newark
(47.5833°N, 8.1500°E)
Time: 13:54:21
(UTC+00:00)

S-56A Canister/Altair - Visible Passes

Search period start: 30 October 2020 00:00
Search period end: 09 November 2020 00:00
Orbit: 633 x 2499 km, 38.9° (Epoch: 29 October)

Date Brightness Start Highest point End Pass type
(mag) Time Alt. Az. Time Alt. Az. Time Alt. Az.
30 Oct 9.8 04:03:42 10° SSW 04:07:37 20° SE 04:12:33 10° ESE visible
31 Oct 9.7 03:32:40 12° S 03:35:09 17° SE 03:39:00 10° ESE visible
31 Oct 9.4 05:32:25 10° SW 05:37:46 39° SSE 05:45:26 10° ESE visible
01 Nov 9.9 03:02:01 13° SSE 03:02:42 13° SE 03:05:19 10° ESE visible
01 Nov 9.3 05:00:12 10° SW 05:05:09 35° SSE 05:12:03 10° ESE visible
02 Nov 9.2 04:28:45 14° SW 04:32:36 32° SSE 04:38:44 10° ESE visible
03 Nov 9.0 03:58:01 21° SSW 04:00:05 28° SSE 04:05:29 10° ESE visible
04 Nov 9.1 03:27:15 24° SSE 03:27:36 24° SSE 03:32:18 10° ESE visible
04 Nov 9.0 05:25:33 10° WSW 05:30:33 39° S 05:37:34 10° ESE visible
05 Nov 9.6 02:56:28 19° SE 02:56:28 19° SE 02:59:09 10° ESE visible
05 Nov 8.9 04:53:54 14° WSW 04:57:58 37° S 05:04:20 10° ESE visible
06 Nov 10.2 02:25:39 11° ESE 02:25:39 11° ESE 02:26:04 10° ESE visible
06 Nov 8.7 04:23:05 23° SW 04:25:24 34° S 04:31:11 10° ESE visible
07 Nov 8.5 03:52:16 31° S 03:52:53 32° S 03:58:07 10° ESE visible
08 Nov 9.0 03:21:26 27° SSE 03:21:26 27° SSE 03:25:08 10° ESE visible
08 Nov 9.1 05:18:58 10° WSW 05:23:28 31° S 05:29:26 10° SE visible
